Date String (YYYY-MM-DD hh:mm:ss) UTC,Instrument flags,absolute air pressure of the measurement (hPa),sample flow rate (lpm),inlet stack bypass flow (lpm),air temperature of the measurement (°C),ambient temperature measured by the external sensor (°C),aerosol sample conditioner tube jacket temperature (°C),OPC LED temperature (°C),internal box temperature (°C),relative humidity of the measurement (%),span deviation,mass concentration of particles derived from Lorenz-Mie calculation of OPC scattering (μg/m³),mass concentration of particles derived from Lorenz-Mie calculation of OPC scattering (μg/m³),mass concentration of particles derived from Lorenz-Mie calculation of OPC scattering (μg/m³)
DateTimeUTC,F1_M11,P_M11,Q1_M11,Q2_M11,T1_M11,T2_M11,T3_M11,T4_M11,T5_M11,U1_M11,ZSPAN_M11,X0_M11,X2_M11,X1_M11
2023-10-08 08:00:00,SystemResetWarning,0834.8,5.00,000.00,028.7,027.1,000.0,037.2,030.2,13.4,0000.0,0007.66,0003.55,0003.14
2023-10-08 08:01:00,SystemResetWarning,0834.8,5.00,000.00,028.7,027.0,000.0,037.2,030.2,13.4,0000.0,0007.65,0003.56,0003.14
2023-10-08 08:02:00,SystemResetWarning,0834.9,4.99,000.00,028.7,027.0,000.0,037.1,030.2,13.4,0000.0,0007.49,0003.57,0003.14
2023-10-08 08:03:00,SystemResetWarning,0834.9,5.00,000.00,028.6,027.0,000.0,037.1,030.2,13.4,0000.0,0006.88,0003.57,0003.14
2023-10-08 08:04:00,SystemResetWarning,0834.8,5.01,000.00,028.6,027.0,000.0,037.1,030.2,13.3,0000.0,0006.53,0003.57,0003.14
2023-10-08 08:05:00,SystemResetWarning,0834.9,5.01,000.00,028.6,027.0,000.0,037.1,030.2,13.3,0000.0,0006.34,0003.60,0003.15
2023-10-08 08:06:00,SystemResetWarning,0834.9,5.00,000.00,028.6,027.0,000.0,037.1,030.2,13.4,0000.0,0006.35,0003.59,0003.15
2023-10-08 08:07:00,SystemResetWarning,0834.9,4.99,000.00,028.6,027.0,000.0,037.1,030.2,13.4,0000.0,0006.31,0003.58,0003.15
2023-10-08 08:08:00,SystemResetWarning,0834.8,5.00,000.00,028.6,027.0,000.0,037.1,030.2,13.4,0000.0,0006.26,0003.55,0003.14
2023-10-08 08:09:00,SystemResetWarning,0835.0,5.00,000.00,028.6,027.0,000.0,037.1,030.2,13.4,0000.0,0006.31,0003.55,0003.14
2023-10-08 08:10:00,SystemResetWarning,0834.8,5.00,000.00,028.6,027.0,000.0,037.1,030.2,13.4,0000.0,0006.40,0003.55,0003.14
2023-10-08 08:11:00,SystemResetWarning,0835.1,5.00,000.00,028.6,027.0,000.0,037.1,030.2,13.4,0000.0,0006.31,0003.54,0003.15
2023-10-08 08:12:00,SystemResetWarning,0835.3,5.00,000.00,028.6,027.0,000.0,037.1,030.2,13.4,0000.0,0006.79,0003.52,0003.14
2023-10-08 08:13:00,SystemResetWarning,0835.4,4.99,000.00,028.6,027.0,000.0,037.1,030.2,13.3,0000.0,0006.85,0003.49,0003.13
2023-10-08 08:14:00,SystemResetWarning,0835.1,5.00,000.00,028.6,027.0,000.0,037.1,030.2,13.3,0000.0,0006.70,0003.48,0003.12
2023-10-08 08:15:00,SystemResetWarning,0834.9,5.01,000.00,028.6,027.0,000.0,037.1,030.2,13.3,0000.0,0006.79,0003.48,0003.12
2023-10-08 08:16:00,SystemResetWarning,0834.7,5.01,000.00,028.6,027.0,000.0,037.1,030.2,13.3,0000.0,0006.79,0003.48,0003.12
2023-10-08 08:17:00,SystemResetWarning,0834.7,5.01,000.00,028.6,027.0,000.0,037.1,030.2,13.3,0000.0,0006.50,0003.46,0003.13
2023-10-08 08:18:00,SystemResetWarning,0834.8,5.00,000.00,028.6,027.0,000.0,037.1,030.2,13.2,0000.0,0007.19,0003.45,0003.12
2023-10-08 08:19:00,SystemResetWarning,0834.7,4.99,000.00,028.6,027.0,000.0,037.1,030.2,13.2,0000.0,0007.34,0003.46,0003.11
2023-10-08 08:20:00,SystemResetWarning,0834.7,4.99,000.00,028.6,027.0,000.0,037.1,030.2,13.2,0000.0,0007.56,0003.49,0003.11
2023-10-08 08:21:00,SystemResetWarning,0835.1,4.99,000.00,028.6,027.0,000.0,037.1,030.2,13.3,0000.0,0007.74,0003.48,0003.11
2023-10-08 08:22:00,SystemResetWarning,0835.2,5.00,000.00,028.6,027.0,000.0,037.1,030.2,13.3,0000.0,0007.73,0003.46,0003.11
2023-10-08 08:23:00,SystemResetWarning,0835.0,5.00,000.00,028.6,027.0,000.0,037.1,030.2,13.3,0000.0,0007.46,0003.46,0003.11
2023-10-08 08:24:00,SystemResetWarning,0835.2,5.00,000.00,028.6,027.0,000.0,037.1,030.2,13.3,0000.0,0007.41,0003.49,0003.11
2023-10-08 08:25:00,SystemResetWarning,0835.0,5.00,000.00,028.6,026.9,000.0,037.0,030.2,13.3,0000.0,0007.39,0003.49,0003.11
2023-10-08 08:26:00,SystemResetWarning,0834.8,5.00,000.00,028.6,026.9,000.0,037.1,030.2,13.3,0000.0,0007.35,0003.49,0003.12
2023-10-08 08:27:00,SystemResetWarning,0834.9,5.00,000.00,028.6,026.9,000.0,037.1,030.1,13.3,0000.0,0007.27,0003.47,0003.12
2023-10-08 08:28:00,SystemResetWarning,0834.6,5.00,000.00,028.6,026.9,000.0,037.1,030.1,13.3,0000.0,0007.35,0003.48,0003.12
2023-10-08 08:29:00,SystemResetWarning,0834.6,4.99,000.00,028.5,026.9,000.0,037.0,030.1,13.2,0000.0,0006.67,0003.48,0003.13
2023-10-08 08:30:00,SystemResetWarning,0834.8,5.00,000.00,028.5,026.9,000.0,037.0,030.1,13.2,0000.0,0006.37,0003.46,0003.13
2023-10-08 08:31:00,SystemResetWarning,0835.0,4.99,000.00,028.5,026.9,000.0,037.0,030.1,13.2,0000.0,0006.27,0003.44,0003.13
2023-10-08 08:32:00,SystemResetWarning,0834.9,4.99,000.00,028.5,026.9,000.0,037.0,030.1,13.2,0000.0,0006.97,0003.42,0003.13
2023-10-08 08:33:00,SystemResetWarning,0834.9,5.01,000.00,028.5,026.9,000.0,037.0,030.1,13.2,0000.0,0006.91,0003.41,0003.13
2023-10-08 08:34:00,SystemResetWarning,0834.5,5.01,000.00,028.5,026.9,000.0,037.0,030.1,13.2,0000.0,0007.26,0003.43,0003.13
2023-10-08 08:35:00,SystemResetWarning,0834.5,5.01,000.00,028.5,026.9,000.0,037.0,030.1,13.1,0000.0,0007.58,0003.44,0003.13
2023-10-08 08:36:00,SystemResetWarning,0834.5,5.01,000.00,028.5,026.9,000.0,037.0,030.1,13.1,0000.0,0007.60,0003.45,0003.13
2023-10-08 08:37:00,SystemResetWarning,0834.5,5.00,000.00,028.5,026.9,000.0,037.0,030.1,13.1,0000.0,0007.63,0003.46,0003.13
2023-10-08 08:38:00,SystemResetWarning,0834.5,4.99,000.00,028.5,026.9,000.0,037.0,030.1,13.1,0000.0,0007.85,0003.46,0003.13
2023-10-08 08:39:00,SystemResetWarning,0834.5,4.99,000.00,028.5,026.9,000.0,037.0,030.1,13.1,0000.0,0007.86,0003.44,0003.12
2023-10-08 08:40:00,SystemResetWarning,0834.4,5.00,000.00,028.5,026.9,000.0,037.0,030.1,13.1,0000.0,0008.34,0003.45,0003.12
2023-10-08 08:41:00,SystemResetWarning,0834.4,5.00,000.00,028.5,026.9,000.0,037.0,030.1,13.1,0000.0,0008.55,0003.48,0003.12
2023-10-08 08:42:00,SystemResetWarning,0834.4,5.00,000.00,028.5,026.9,000.0,037.0,030.1,13.0,0000.0,0008.60,0003.48,0003.12
2023-10-08 08:43:00,SystemResetWarning,0834.3,5.00,000.00,028.5,026.9,000.0,037.0,030.1,13.1,0000.0,0007.80,0003.50,0003.12
2023-10-08 08:44:00,SystemResetWarning,0834.4,5.01,000.00,028.5,026.9,000.0,037.0,030.1,13.1,0000.0,0007.97,0003.56,0003.13
2023-10-08 08:45:00,SystemResetWarning,0834.4,5.00,000.00,028.5,026.9,000.0,037.0,030.1,13.1,0000.0,0007.95,0003.56,0003.13
2023-10-08 08:46:00,SystemResetWarning,0834.4,5.00,000.00,028.5,026.9,000.0,037.0,030.1,13.1,0000.0,0007.87,0003.53,0003.13
2023-10-08 08:47:00,SystemResetWarning,0834.4,4.99,000.00,028.5,026.9,000.0,037.0,030.1,13.0,0000.0,0008.22,0003.52,0003.12
2023-10-08 08:48:00,SystemResetWarning,0834.3,4.99,000.00,028.5,026.9,000.0,037.0,030.0,13.0,0000.0,0008.14,0003.49,0003.12
2023-10-08 08:49:00,SystemResetWarning,0834.4,5.00,000.00,028.5,026.9,000.0,037.0,030.1,13.0,0000.0,0008.00,0003.50,0003.11
2023-10-08 08:50:00,SystemResetWarning,0834.3,5.00,000.00,028.5,026.9,000.0,037.0,030.1,13.0,0000.0,0007.96,0003.50,0003.11
2023-10-08 08:51:00,SystemResetWarning,0834.3,5.01,000.00,028.5,026.9,000.0,037.0,030.1,13.0,0000.0,0007.33,0003.48,0003.11
2023-10-08 08:52:00,SystemResetWarning,0834.4,5.00,000.00,028.5,026.9,000.0,037.0,030.1,13.0,0000.0,0007.02,0003.44,0003.10
2023-10-08 08:53:00,SystemResetWarning,0834.5,5.01,000.00,028.5,026.9,000.0,037.0,030.1,13.0,0000.0,0006.93,0003.43,0003.10
2023-10-08 08:54:00,SystemResetWarning,0834.2,5.01,000.00,028.5,026.9,000.0,037.0,030.1,13.0,0000.0,0006.87,0003.42,0003.10
2023-10-08 08:55:00,SystemResetWarning,0834.4,5.00,000.00,028.5,026.9,000.0,036.9,030.0,13.0,0000.0,0006.60,0003.37,0003.09
2023-10-08 08:56:00,SystemResetWarning,0834.6,5.00,000.00,028.5,026.9,000.0,036.9,030.0,13.0,0000.0,0006.35,0003.33,0003.06
2023-10-08 08:57:00,SystemResetWarning,0834.5,5.00,000.00,028.5,026.9,000.0,036.9,030.1,13.0,0000.0,0006.08,0003.35,0003.05
2023-10-08 08:58:00,SystemResetWarning,0834.3,5.00,000.00,028.5,026.9,000.0,036.9,030.0,13.0,0000.0,0005.32,0003.34,0003.05
2023-10-08 08:59:00,SystemResetWarning,0834.3,4.99,000.00,028.5,026.9,000.0,036.9,030.0,13.0,0000.0,0005.31,0003.33,0003.02
